Погода в Остере

Россия / Смоленская область     54°00′48″N   32°47′59″E
темп.,
°C
ветер,
м/с
пор.,
м/с
влажн.,
%
обл.,
%
осадки,
мм/ч
давл.,
гПа
погр.,
м
14 апреля, ср
ср1400:00+11ююв119572 0.3 101821
03:00+10ю249778 0.6 1018104
06:00+9ююв259581 0.3 1018132
09:00+11ю368559 0.3 1018469
12:00+14ю456475 0.3 10171167
15:00+15ю3456100 0.6 10161338
18:00+14юв2264100 0.1 1016233
21:00+11всв2283100 0.5 101716
15 апреля, чт
чт1500:00+10св2390100 0.4 101650
03:00+9св3789100 0.5 1015145
06:00+9ссв4987100 0.0 1014175
09:00+11всв5884100 0.1 1014370
12:00+12в6971100 0.2 1015934
15:00+13всв577358 0.3 1014930
18:00+13всв51074100 1.4 1013748
21:00+10юв3790100 2.8 1014265
16 апреля, пт
пт1600:00+9св5128487 0.3 1014370
03:00+9всв6138617 0.4 1014414
06:00+8всв5119563 0.1 1015388
09:00+11в5784100 0.1 1016496
12:00+14в5770100 0.6 10161187
15:00+11в51088100 4.0 1017748
18:00+12всв4780100 0.8 1017594
21:00+9всв41091100 1.5 1019311
17 апреля, сб
сб1700:00+8всв3895100 0.0 1019203
03:00+8в4109699 0.6 1020377
06:00+8в4892100 0.1 1021440
09:00+9всв589099 0.1 1023439
12:00+10всв5784100 0.0 1023704
15:00+11всв5979100 0.1 1023962
18:00+12всв51070100 0.0 1022711
21:00+10всв6137287 0.0 1023686
18 апреля, вс
вс1800:00+8всв5147644 0.0 1024459
03:00+6всв512735 0.0 1025355
06:00+4всв411785 0.0 1025309
09:00+8в586851 0.0 1026496
12:00+10в576485 0.0 1026788
15:00+13в566279 0.0 10261241
18:00+12в576952 0.0 1027888
21:00+8всв378036 0.0 1028121